x

South Hatteras - 225 South Of Cape Hatteras (41002) Wave Buoy

2:50 - Thu 25th Aug 2016 All times are EDT. -4 hours from GMT.

  • Sig Wave height 4.3ft
  • Swell Direction
  • Peak Period 8s
  • Average Period 5s
  • Wind
    16mph, 20mph gusts
  • Sea Temp 84°f
  • Aire Temp 82°f
  • Sea Pressure 1018.1mb
  • South Hatteras - 225 South Of Cape Hatteras
  • South Hatteras - 225 South Of Cape Hatteras

More Historic Weather Station data

Upgrade to MSW Pro to gain access to the past 30 days of data for over 8000 Wavebouys and Weather Stations around the globe.

Join Pro

Comparision Forecast

View Surf forecast
   
jue 08/25 2:50 4.5ft 8s 5s 16 20 mph 1018.1mb 84f 82f
1:50 4.5ft 8s 5s 16 20 mph 1018.6mb 84f 82f
12:50 5ft 8s 5s 16 20 mph 1018.8mb 84f 82f
11:50 5ft 7s 5s 18 20 mph 1019.4mb 84f 82f
10:50 5ft 7s 5s 16 20 mph 1019.4mb 84f 82f
9:50 5ft 7s 5s 16 20 mph 1019.3mb 84f 81f
8:50 5.5ft 7s 5s 18 22 mph 1019.1mb 84f 81f
7:50 5.5ft 8s 5s 16 20 mph 1018.9mb 84f 81f
6:50 6ft 6s 6s 18 22 mph 1018.4mb 84f 81f
5:50 6.5ft 7s 6s 20 22 mph 1018.1mb 84f 81f
4:50 6ft 7s 5s 20 25 mph 1017.8mb 84f 81f
3:50 6ft 7s 5s 20 25 mph 1017.8mb 84f 81f
2:50 5.5ft 6s 5s 20 25 mph 1018.2mb 85f 82f
1:50 5.5ft 6s 5s 20 22 mph 1018.7mb 85f 82f
12:50 6ft 6s 5s 22 27 mph 1019.1mb 85f 80f
mié 08/24 10:50 5ft 10s 5s 20 25 mph 1019.6mb 85f 82f
9:50 4.5ft 10s 5s 20 22 mph 1019.7mb 85f 82f
8:50 4.5ft 5s 5s 13 18 mph 1019.6mb 85f 83f
7:50 4.5ft 10s 5s 16 20 mph 1019.3mb 85f 82f
6:50 4.5ft 11s 5s 18 20 mph 1019.2mb 85f 83f
5:50 4.5ft 6s 5s 16 20 mph 1019.3mb 85f 82f
4:50 5ft 11s 5s 16 20 mph 1019.5mb 85f 82f
3:50 5ft 6s 5s 16 20 mph 1020mb 85f 82f
2:50 5ft 11s 5s 16 20 mph 1020.5mb 85f 82f
1:50 5ft 6s 5s 18 22 mph 1020.7mb 85f 82f
12:50 4.5ft 11s  -  18 20 mph 1021.2mb 85f 83f
11:50 4.5ft 11s 5s 18 20 mph 1021.4mb 85f 82f
10:50 4.5ft 6s 5s 18 20 mph 1021.7mb 85f 82f
9:50 5ft 6s 5s 18 22 mph 1021.4mb 85f 82f
8:50 4.5ft 5s 5s 20 22 mph 1021.2mb 85f 82f
7:50 4.5ft 6s 5s 16 20 mph 1021.1mb 85f 82f
6:50 4.5ft 5s 5s 18 20 mph 1020.8mb 85f 82f
5:50 4ft 6s 5s 18 22 mph 1020.3mb 85f 82f
4:50 4ft 5s 5s 18 20 mph 1020.4mb 85f 82f
3:50 4ft 5s 5s 16 20 mph 1020.6mb 85f 82f
2:50 4.5ft 5s 5s 16 18 mph 1020.8mb 85f 82f
1:50 4.5ft 5s 5s 16 20 mph 1021mb 85f 82f
12:50 4ft 6s 5s 18 22 mph 1021.2mb 85f 83f
mar 08/23 11:50 4.5ft 5s 5s 18 20 mph 1021.4mb 85f 83f
10:50 4.5ft 5s 5s 18 20 mph 1021.3mb 85f 83f
9:50 4.5ft 5s 5s 18 20 mph 1021.4mb 85f 83f
8:50 4ft 5s 5s 18 20 mph 1021.2mb 85f 83f
7:50 3.5ft 5s 5s 16 18 mph 1020.8mb 85f 83f
6:50 4ft 7s 5s 16 18 mph 1020.8mb 85f 83f
5:50 4ft 5s 5s 16 18 mph 1021.1mb 85f 83f
4:50 4ft 7s 5s 13 18 mph 1020.9mb 85f 83f
3:50 4.5ft 5s 5s 16 20 mph 1021mb 85f 83f
2:50 4.5ft 6s 5s 16 18 mph 1021.5mb 85f 83f
1:50 4.5ft 5s 5s 18 20 mph 1021.9mb 85f 83f
12:50 4.5ft 5s 5s 18 22 mph 1022.1mb 85f 83f
11:50 4.5ft 5s 5s 18 22 mph 1022.3mb 85f 83f
10:50 5ft 5s 5s 20 25 mph 1022.4mb 85f 83f
9:50 4.5ft 6s 5s 20 25 mph 1021.9mb 85f 83f
8:50 4.5ft 5s 5s 20 22 mph 1021.4mb 85f 83f
7:50 4ft 4s 4s 18 22 mph 1020.9mb 85f 83f
6:50 3.5ft 5s 4s 20 25 mph 1020.2mb 85f 83f
5:50 3ft 6s 4s 16 18 mph 1019.9mb 85f 83f
4:50 3ft 6s 4s 16 18 mph 1019.2mb 85f 83f
3:50 2.5ft 6s 4s 13 16 mph 1019.4mb 85f 84f
2:50 2.5ft 5s 4s 11 13 mph 1019.5mb 85f 84f
1:50 2.5ft 5s 4s 13 16 mph 1019.6mb 85f 84f
12:50 2.5ft 5s 4s 13 18 mph 1019.8mb 85f 84f
lun 08/22 11:50 2.5ft 6s 4s 13 16 mph 1019.6mb 85f 84f
10:50 2.5ft 5s 5s 13 16 mph 1019.6mb 85f 84f
9:50 2.5ft 6s 5s 11 13 mph 1019.2mb 85f 84f
8:50 2.5ft 5s 5s 11 16 mph 1018.6mb 85f 84f
7:50 2.5ft 6s 5s 11 13 mph 1018mb 85f 84f
6:50 3ft 5s 5s 13
mph
1017.6mb 85f 85f
5:50 3ft 5s 5s 11 13 mph 1017.4mb 85f 85f
4:50 3.5ft 5s 5s 11 13 mph 1017.2mb 85f 85f
3:50 3ft 6s 5s 11 13 mph 1017.2mb 85f 85f
2:50 3.5ft 6s 5s 11 13 mph 1017.2mb 85f 85f
1:50 3.5ft 6s 5s 9 11 mph 1017.4mb 85f 85f
12:50 3.5ft 6s 5s 13 16 mph 1017.4mb 85f 85f
11:50 3.5ft 6s 5s 13 16 mph 1017.3mb 85f 85f
10:50 3.5ft 6s 4s 13 16 mph 1017mb 85f 85f
9:50 3.5ft 6s 5s 13 16 mph 1016.7mb 85f 85f
8:50 3.5ft 5s 5s 13 18 mph 1016.4mb 84f 85f
7:50 3.5ft 6s 4s 13 18 mph 1016.2mb 84f 84f
6:50 3.5ft 5s 4s 16 18 mph 1015.7mb 84f 84f
5:50 3.5ft 5s 4s 16 20 mph 1014.9mb 84f 84f
4:50 3.5ft 5s 4s 16 20 mph 1014.6mb 84f 84f
3:50 3.5ft 5s 5s 16 20 mph 1014.7mb 84f 84f
2:50 3.5ft 6s 4s 18 20 mph 1014.9mb 84f 84f
1:50 3.5ft 5s 4s 16 18 mph 1015.2mb 84f 84f
12:50 3.5ft 6s 5s 16 18 mph 1015.6mb 84f 84f
dom 08/21 10:50 3.5ft 6s 5s 13 16 mph 1015.5mb 84f 84f
9:50 3.5ft 6s 5s 11 13 mph 1015mb 84f 84f
8:50 3.5ft 5s 5s 13 16 mph 1014.3mb 85f 84f